Location: Bonac
(42.8765°N, 0.9753°E)
Time: 10:49:18
(UTC+00:00)

Cosmos 1241 Rocket - Pass Details

Date: 12 January 2026
Orbit: 942 x 1004 km, 65.8° (Epoch: 10 February)

Event Time Altitude Azimuth Distance (km) Brightness Sun altitude
Rises 17:33:01 0° 327° (NNW) 3,614 7.6 -9.0°
Reaches altitude 10° 17:35:33 10° 327° (NNW) 2,665 7.0 -9.4°
Maximum altitude 17:41:47 89° 240° (WSW) 950 4.5 -10.5°
Drops below altitude 10° 17:48:01 10° 150° (SSE) 2,667 6.7 -11.6°
Sets 17:50:33 0° 150° (SSE) 3,616 7.4 -12.0°
